Weather Roundup
Issued by NWS

Home | Current Version | Previous Version | Graphics & Text | Print | Product List | Glossary Off
Versions: 1 2 3 4 5 6 7 8 9 10 11 12 13 14 15 16 17 18 19 20 21 22 23 24 25 26 27 28 29 30 31 32 33 34 35 36 37 38 39 40 41 42 43 44 45 46 47 48 49 50

000
NZUS93 KARX 212110
HRRWXR

CURRENT HOURLY OBSERVATIONS ACROSS
MUCH OF THE UPPER MISSISSIPPI VALLEY
NATIONAL WEATHER SERVICE LA CROSSE WI
400 PM CDT THU AUG 21 2014


...SOUTHEAST MINNESOTA...


CITY           SKY/WX    TMP DP  RH WIND       PRES   REMARKS
ROCHESTER      PTSUNNY   83  73  72 S13       29.84S
ROCHESTER/MAYO FAIR      83  70  64 SE12G17   29.83S
WINONA         PTSUNNY   81  72  74 E10       29.82S
AUSTIN         MOSUNNY   84  73  70 S9G17     29.82S HX  91
ALBERT LEA     MOSUNNY   84  70  61 SW13      29.81S
DODGE CENTER   MOSUNNY   84  72  65 S14G20    29.83R
PRESTON        PTSUNNY   79  75  89 S13       29.86R
OWATONNA       MOSUNNY   84  72  65 S12       29.81R
FARIBAULT      MOSUNNY   90  68  48 S8        29.80R HX  93
$$

...ELSEWHERE IN MINNESOTA...


CITY           SKY/WX    TMP DP  RH WIND       PRES   REMARKS
MINNEAPOLIS    CLOUDY    81  73  76 NE8       29.77S
INTNL FALLS    CLOUDY    69  62  78 SE8       29.87F
DULUTH         CLOUDY    66  60  81 E15       29.88F
RED WING       MOSUNNY   84  72  65 S5        29.78S
REDWOOD FALLS  MOSUNNY   88  75  65 N9        29.76S HX  97
MANKATO        CLOUDY    84  70  61 SW13      29.78S
WORTHINGTON    MOSUNNY   88  25  10 W9        29.83R
FAIRMONT       SUNNY     88  70  55 MISG      29.80R HX  92
$$

...SOUTHWEST WISCONSIN...


CITY           SKY/WX    TMP DP  RH WIND       PRES   REMARKS
LA CROSSE      MOSUNNY   82  71  69 S14       29.83S
PRAIRIE DU CHI PTSUNNY   79  71  76 SE7       29.84S
BOSCOBEL       PTSUNNY   82  72  71 VRB6      29.85F
LONE ROCK      CLOUDY    82  73  74 E8        29.87F
PLATTEVILLE    CLOUDY    76  73  88 SE10      29.89S
FORT MC COY    CLOUDY    78  68  71 S6        29.87S
CAMP DOUGLAS   PTSUNNY   76  74  93 SE9       29.89R
VIROQUA        MOCLDY    78  74  86 S10       29.88S
WIS DELLS      CLOUDY    75  69  80 S9        29.89F
$$

...ELSEWHERE IN WISCONSIN...


CITY           SKY/WX    TMP DP  RH WIND       PRES   REMARKS
MILWAUKEE      CLOUDY    73  70  90 S10       29.93F
MADISON        CLOUDY    76  71  85 S10       29.90F
GREEN BAY      CLOUDY    68  64  87 SE6       29.94R
EAU CLAIRE     CLOUDY    76  70  82 SE12      29.84R
BLACK RVR FLS  CLOUDY    79  70  73 SE5       29.86S
MEDFORD        CLOUDY    69  67  92 E9        29.91S
WAUSAU         CLOUDY    68  66  93 SE9       29.92S
WIS RAPIDS     CLOUDY    79  69  71 VRB6      29.91R
MARSHFIELD     CLOUDY    78  68  71 SE7       29.90R
RICE LAKE      CLOUDY    75  67  76 SE8       29.86S
$$

...NORTHEAST IOWA...


CITY           SKY/WX    TMP DP  RH WIND       PRES   REMARKS
WATERLOO       PTSUNNY   82  70  66 S18       29.82S
DUBUQUE        CLOUDY    75  73  93 S14       29.87R
DECORAH        PTSUNNY   79  73  83 VRB7G13   29.85R
MASON CITY     SUNNY     89  71  55 S14G23    29.83S HX  95
CHARLES CITY   MOSUNNY   82  73  74 S9G15     29.84R
OELWEIN        CLOUDY    77  72  83 S10G17    29.86S
$$

...ELSEWHERE IN IOWA...


CITY           SKY/WX    TMP DP  RH WIND       PRES   REMARKS
DES MOINES     MOSUNNY   86  75  69 S14       29.85S HX  95
IOWA CITY      CLOUDY    79  76  90 CALM      29.91F THUNDER
FORT DODGE     MOSUNNY   86  72  62 SW13G23   29.83S HX  92
MARSHALLTOWN   SUNNY     84  72  67 S16       29.84S
CEDAR RAPIDS   LGT RAIN  77  75  93 S14       29.87S
$$

...NORTHERN ILLINOIS...


CITY           SKY/WX    TMP DP  RH WIND       PRES   REMARKS
CHICAGO-OHARE  HVY RAIN  76  70  82 N12       29.96R
DUPAGE         HVY RAIN  77  73  87 W8        29.97R FOG
CHICAGO-MIDWAY TSTM      79  74  84 N9        29.94S
MOLINE         CLOUDY    82  73  74 SE5       29.90F
ROCKFORD       CLOUDY    76  73  91 S10       29.94F
STERLING       CLOUDY    77  73  88 CALM      29.94F
PEORIA         CLOUDY    87  75  67 SW5       29.93F HX  96
$$

NOTE: "FAIR" INDICATES FEW OR NO CLOUDS BELOW 12,000 FEET WITH NO
SIGNIFICANT WEATHER AND/OR OBSTRUCTIONS TO VISIBILITY. WIND
SPEEDS ARE IN MILES-PER-HOUR.



USA.gov is the U.S. government's official web portal to all federal, state and local government web resources and services.